CST,Max TemperatureF,Mean TemperatureF,Min TemperatureF,Max Dew PointF,MeanDew PointF,Min DewpointF,Max Humidity, Mean Humidity, Min Humidity, Max Sea Level PressureIn, Mean Sea Level PressureIn, Min Sea Level PressureIn, Max VisibilityMiles, Mean VisibilityMiles, Min VisibilityMiles, Max Wind SpeedMPH, Mean Wind SpeedMPH, Max Gust SpeedMPH,PrecipitationIn, CloudCover, Events, WindDirDegrees
2012-12-1,53,44,35,48,41,34,100,87,72,29.95,29.85,29.77,10,6,0,9,6,,0.00,4,,286
2012-12-2,68,50,33,39,35,27,87,63,32,30.02,29.90,29.67,10,10,6,16,7,,0.00,0,,188
2012-12-3,62,46,30,39,31,19,93,58,38,30.15,29.85,29.58,10,10,7,26,9,32,0.00,0,,324
2012-12-4,60,40,21,23,17,12,74,45,17,30.35,30.26,30.15,10,10,10,9,7,,0.00,0,,278
2012-12-5,62,45,28,25,20,14,59,37,20,30.25,30.05,29.85,10,10,10,28,10,33,0.00,0,,181
2012-12-6,53,42,32,30,22,16,65,44,30,29.97,29.89,29.81,10,10,5,25,9,31,0.00,1,,22
2012-12-7,48,37,26,28,21,16,74,54,40,29.98,29.91,29.84,10,10,6,10,5,,0.00,4,,10
2012-12-8,46,32,19,27,22,14,86,67,43,30.00,29.87,29.76,10,10,9,15,6,17,0.00,1,,177
2012-12-9,39,26,14,27,9,-2,75,48,34,30.23,30.05,29.85,10,10,4,32,16,41,0.00,5,,329
2012-12-10,42,21,0,9,0,-9,85,44,19,30.20,30.01,29.88,10,10,9,21,11,25,0.00,0,,261
2012-12-11,44,29,14,21,10,0,74,49,25,30.08,30.01,29.94,10,10,5,12,8,,0.00,0,,269
2012-12-12,53,37,21,18,14,9,63,42,22,29.99,29.94,29.88,10,10,10,23,10,29,0.00,0,,195
2012-12-13,55,38,21,21,16,10,69,45,25,30.02,29.97,29.92,10,10,9,12,6,,0.00,0,,103
2012-12-14,55,39,23,46,32,10,93,74,54,29.94,29.74,29.37,10,9,4,22,7,28,0.31,3,Thunderstorm,161
2012-12-15,53,42,32,45,36,28,93,76,47,29.72,29.60,29.35,10,10,8,21,9,28,0.01,3,,294
2012-12-16,42,35,28,30,27,25,93,77,57,29.81,29.75,29.70,10,10,10,13,7,,0.00,4,,341
2012-12-17,55,40,26,30,26,21,93,68,33,29.81,29.69,29.56,10,9,0,22,8,31,0.00,2,,256
2012-12-18,55,42,28,25,19,12,75,47,19,29.79,29.71,29.57,10,10,10,18,8,24,0.00,0,,317
2012-12-19,44,35,26,34,27,21,93,69,56,29.85,29.66,29.50,10,8,0,37,14,46,0.00,6,,55
2012-12-20,33,26,17,23,13,7,86,61,47,30.24,30.16,29.87,10,9,1,33,19,41,0.00,1,,300
2012-12-21,44,28,12,27,17,7,86,69,42,30.26,30.19,30.10,10,10,10,8,3,,0.00,0,,188
2012-12-22,44,30,15,28,21,9,93,73,49,30.08,29.98,29.91,10,10,10,10,4,,0.00,0,,318
2012-12-23,28,22,17,21,17,12,93,80,69,30.01,29.95,29.90,10,10,7,10,7,,0.00,0,,348
2012-12-24,24,18,12,18,11,7,93,73,54,30.07,30.03,29.99,10,10,10,16,10,18,0.00,0,,32
2012-12-25,17,12,8,10,5,1,79,68,53,30.31,30.23,30.08,10,10,5,29,18,34,0.00,7,,15
2012-12-26,24,14,3,9,5,-2,92,71,50,30.29,30.12,29.93,10,10,10,14,7,,0.00,0,,94
2012-12-27,24,20,15,18,14,9,80,74,63,29.97,29.86,29.81,10,10,8,18,11,16,0.00,7,,78
2012-12-28,23,14,6,12,6,0,85,69,54,30.12,30.03,29.97,10,10,8,21,11,24,0.00,1,,315
2012-12-29,39,22,6,19,12,1,86,66,42,30.28,30.21,30.12,10,10,10,13,7,18,0.00,0,,275
2012-12-30,46,32,19,25,20,10,74,56,37,30.18,30.05,30.00,10,10,10,24,12,33,0.00,1,,209
2012-12-31,30,24,17,25,18,12,93,82,64,30.16,30.06,30.00,10,4,0,17,11,20,0.00,8,,31